VKG480 ESSV-LGRP

Flight info

Callsign VKG480
Flight time 2h 59m
Altitude 33000
Route VSB T316 PENOR N133 POLON DCT GEVNA/N0448F350 DCT LENOV DCT PERIT DCT AGNEP DCT NULGO DCT OSTOV N127 ROVAM DCT ETRIL DCT OTKOK N127 NIKTI DCT MES UN139 LURUS UL995 USINI/N0389F230 L995 CODIC
Aircraft A321/M-SDE3FGHIRWY/LB1

Departure

Time 2026-04-29 06:03
Airport Visby Airport (ESSV)

Arrival

Time 2026-04-29 09:02
Airport Rhodes International Airport "Diagoras" (LGRP)
Time Latitude Longitude Altitude Speed Heading
2026-04-29 05:50 57.66055 18.33955 159 ft 0 kts 336°
2026-04-29 05:57 57.66059 18.33955 159 ft 1 kts
2026-04-29 05:58 57.66062 18.33962 159 ft 1 kts 39°
2026-04-29 05:58 57.66057 18.33978 159 ft 1 kts 131°
2026-04-29 05:58 57.66050 18.33987 159 ft 4 kts 142°
2026-04-29 05:58 57.66014 18.34089 159 ft 12 kts 110°
2026-04-29 05:59 57.65987 18.34222 158 ft 10 kts 111°
2026-04-29 05:59 57.65965 18.34347 157 ft 11 kts 91°
2026-04-29 05:59 57.66013 18.34428 156 ft 10 kts 19°
2026-04-29 05:59 57.66093 18.34485 157 ft 18 kts 22°
2026-04-29 06:00 57.66250 18.34600 157 ft 29 kts 21°
2026-04-29 06:00 57.66437 18.34732 156 ft 28 kts 21°
2026-04-29 06:00 57.66617 18.34862 154 ft 27 kts 21°
2026-04-29 06:00 57.66789 18.34984 155 ft 26 kts 21°
2026-04-29 06:01 57.66944 18.35096 158 ft 22 kts 21°
2026-04-29 06:01 57.67058 18.35162 159 ft 11 kts
2026-04-29 06:01 57.67073 18.35193 159 ft 1 kts 146°
2026-04-29 06:01 57.67067 18.35193 159 ft 1 kts 175°
2026-04-29 06:02 57.67038 18.35166 158 ft 4 kts 201°
2026-04-29 06:02 57.67035 18.35164 158 ft 6 kts 201°
2026-04-29 06:02 57.66696 18.34920 155 ft 97 kts 201°
2026-04-29 06:02 57.65837 18.34298 170 ft 163 kts 201°
2026-04-29 06:03 57.64769 18.33508 938 ft 163 kts 200°
2026-04-29 06:03 57.63706 18.32741 1770 ft 165 kts 200°
2026-04-29 06:03 57.62594 18.31951 2274 ft 183 kts 200°
2026-04-29 06:03 57.61325 18.31093 2542 ft 204 kts 200°
2026-04-29 06:04 57.59911 18.30166 2683 ft 226 kts 199°
2026-04-29 06:04 57.58345 18.29153 2834 ft 251 kts 199°
2026-04-29 06:04 57.56639 18.28090 3350 ft 263 kts 198°
2026-04-29 06:04 57.54879 18.27012 4078 ft 269 kts 199°
2026-04-29 06:05 57.53087 18.25921 4852 ft 272 kts 199°
2026-04-29 06:05 57.51277 18.24823 5609 ft 276 kts 199°
2026-04-29 06:05 57.49433 18.23703 6365 ft 280 kts 199°
2026-04-29 06:05 57.47566 18.22567 7073 ft 285 kts 199°
2026-04-29 06:06 57.45667 18.21412 7724 ft 290 kts 199°
2026-04-29 06:06 57.43729 18.20235 8363 ft 296 kts 199°
2026-04-29 06:06 57.41755 18.19035 8990 ft 301 kts 199°
2026-04-29 06:06 57.39744 18.17810 9623 ft 307 kts 199°
2026-04-29 06:07 57.37694 18.16560 10245 ft 313 kts 199°
2026-04-29 06:07 57.35599 18.15285 10654 ft 326 kts 198°
2026-04-29 06:07 57.33375 18.13937 10789 ft 347 kts 198°
2026-04-29 06:07 57.31014 18.12512 10922 ft 367 kts 198°
2026-04-29 06:08 57.28539 18.11023 11262 ft 379 kts 198°
2026-04-29 06:08 57.26013 18.09508 11801 ft 385 kts 198°
2026-04-29 06:08 57.23447 18.07967 12331 ft 390 kts 198°
2026-04-29 06:08 57.20846 18.06401 12872 ft 396 kts 198°
2026-04-29 06:09 57.18210 18.04816 13414 ft 402 kts 198°
2026-04-29 06:09 57.15532 18.03208 13959 ft 407 kts 198°
2026-04-29 06:09 57.12820 18.01585 14471 ft 412 kts 198°
2026-04-29 06:09 57.10076 17.99948 14975 ft 417 kts 198°
2026-04-29 06:10 57.07307 17.98299 15483 ft 421 kts 198°
2026-04-29 06:10 57.04509 17.96637 16000 ft 424 kts 198°
2026-04-29 06:10 57.01687 17.94960 16500 ft 428 kts 198°
2026-04-29 06:10 56.98834 17.93266 16975 ft 433 kts 198°
2026-04-29 06:11 56.95960 17.91562 17449 ft 436 kts 198°
2026-04-29 06:11 56.93058 17.89847 17942 ft 440 kts 198°
2026-04-29 06:11 56.90130 17.88121 18414 ft 444 kts 198°
2026-04-29 06:11 56.87175 17.86382 18851 ft 448 kts 198°
2026-04-29 06:12 56.84197 17.84629 19253 ft 451 kts 198°
2026-04-29 06:12 56.81197 17.82858 19656 ft 455 kts 198°
2026-04-29 06:12 56.78175 17.81078 20055 ft 458 kts 198°
2026-04-29 06:12 56.75133 17.79293 20466 ft 461 kts 198°
2026-04-29 06:13 56.72066 17.77494 20851 ft 464 kts 198°
2026-04-29 06:13 56.68981 17.75690 21241 ft 468 kts 197°
2026-04-29 06:13 56.65874 17.73881 21628 ft 471 kts 197°
2026-04-29 06:13 56.62741 17.72063 22008 ft 474 kts 198°
2026-04-29 06:14 56.59586 17.70237 22387 ft 477 kts 198°
2026-04-29 06:14 56.56412 17.68404 22758 ft 480 kts 198°
2026-04-29 06:14 56.53215 17.66560 23128 ft 483 kts 198°
2026-04-29 06:14 56.50004 17.64707 23495 ft 486 kts 198°
2026-04-29 06:15 56.46768 17.62840 23852 ft 489 kts 198°
2026-04-29 06:15 56.43511 17.60963 24167 ft 493 kts 197°
2026-04-29 06:15 56.40238 17.59076 24461 ft 495 kts 197°
2026-04-29 06:15 56.36946 17.57181 24773 ft 498 kts 198°
2026-04-29 06:16 56.33640 17.55285 25078 ft 500 kts 197°
2026-04-29 06:16 56.30312 17.53388 25362 ft 503 kts 197°
2026-04-29 06:16 56.26967 17.51485 25658 ft 505 kts 197°
2026-04-29 06:16 56.23608 17.49575 25938 ft 508 kts 197°
2026-04-29 06:17 56.20229 17.47657 26217 ft 510 kts 197°
2026-04-29 06:17 56.16835 17.45732 26495 ft 513 kts 197°
2026-04-29 06:17 56.13469 17.43825 26763 ft 515 kts 197°
2026-04-29 06:17 56.10046 17.41884 27070 ft 517 kts 197°
2026-04-29 06:18 56.06609 17.39942 27350 ft 519 kts 197°
2026-04-29 06:18 56.03154 17.38002 27622 ft 522 kts 197°
2026-04-29 06:18 55.99683 17.36060 27883 ft 524 kts 197°
2026-04-29 06:18 55.96198 17.34108 28141 ft 526 kts 197°
2026-04-29 06:19 55.92694 17.32148 28383 ft 529 kts 196°
2026-04-29 06:19 55.89179 17.30186 28619 ft 531 kts 196°
2026-04-29 06:19 55.85649 17.28220 28873 ft 533 kts 196°
2026-04-29 06:19 55.82106 17.26247 29125 ft 535 kts 196°
2026-04-29 06:20 55.78552 17.24272 29363 ft 537 kts 196°
2026-04-29 06:20 55.74978 17.22290 29593 ft 539 kts 196°
2026-04-29 06:20 55.71366 17.20485 29817 ft 540 kts 189°
2026-04-29 06:20 55.67660 17.19520 30083 ft 537 kts 180°
2026-04-29 06:21 55.63951 17.19486 30412 ft 530 kts 170°
2026-04-29 06:21 55.60321 17.20348 30702 ft 522 kts 161°
2026-04-29 06:21 55.56849 17.22035 30986 ft 513 kts 153°
2026-04-29 06:21 55.53585 17.24445 31272 ft 506 kts 147°
2026-04-29 06:22 55.50389 17.27050 31556 ft 506 kts 147°
2026-04-29 06:22 55.47192 17.29630 31851 ft 505 kts 148°
2026-04-29 06:22 55.43987 17.32198 32051 ft 507 kts 148°
2026-04-29 06:22 55.40766 17.34769 32184 ft 510 kts 148°
2026-04-29 06:23 55.37523 17.37357 32312 ft 513 kts 148°
2026-04-29 06:23 55.34272 17.39953 32506 ft 515 kts 148°
2026-04-29 06:23 55.31005 17.42563 32640 ft 517 kts 148°
2026-04-29 06:23 55.27731 17.45176 32818 ft 517 kts 149°
2026-04-29 06:24 55.24453 17.47781 33022 ft 517 kts 149°
2026-04-29 06:24 55.21175 17.50378 33228 ft 517 kts 149°
2026-04-29 06:24 55.17896 17.52956 33405 ft 517 kts 149°
2026-04-29 06:24 55.14648 17.55470 33440 ft 517 kts 150°
2026-04-29 06:25 55.08056 17.60488 33426 ft 517 kts 150°
2026-04-29 06:25 55.01459 17.65479 33424 ft 517 kts 150°
2026-04-29 06:26 54.94883 17.70497 33502 ft 516 kts 150°
2026-04-29 06:26 54.88355 17.75651 33432 ft 515 kts 149°
2026-04-29 06:27 54.82937 17.79972 33435 ft 516 kts 149°
2026-04-29 06:27 54.76402 17.85129 33439 ft 516 kts 150°
2026-04-29 06:28 54.69849 17.90212 33433 ft 516 kts 150°
2026-04-29 06:28 54.63291 17.95274 33620 ft 516 kts 150°
2026-04-29 06:29 54.60014 17.97796 33861 ft 515 kts 150°
2026-04-29 06:29 54.56712 18.00203 34089 ft 516 kts 153°
2026-04-29 06:29 54.53362 18.02460 34370 ft 517 kts 155°
2026-04-29 06:29 54.49993 18.04597 34569 ft 516 kts 156°
2026-04-29 06:30 54.46614 18.06683 34741 ft 516 kts 156°
2026-04-29 06:30 54.39870 18.10870 35063 ft 514 kts 156°
2026-04-29 06:30 54.36523 18.13004 35232 ft 514 kts 155°
2026-04-29 06:31 54.33180 18.15165 35380 ft 513 kts 155°
2026-04-29 06:31 54.26499 18.19513 35434 ft 513 kts 155°
2026-04-29 06:32 54.19830 18.23858 35439 ft 513 kts 155°
2026-04-29 06:32 54.13157 18.28163 35471 ft 513 kts 156°
2026-04-29 06:33 54.06483 18.32448 35430 ft 513 kts 156°
2026-04-29 06:33 53.99797 18.36732 35429 ft 513 kts 156°
2026-04-29 06:34 53.93116 18.41004 35423 ft 513 kts 156°
2026-04-29 06:34 53.86436 18.45262 35425 ft 513 kts 156°
2026-04-29 06:35 53.79747 18.49502 35417 ft 513 kts 157°
2026-04-29 06:35 53.73049 18.53729 35420 ft 514 kts 157°
2026-04-29 06:36 53.66358 18.57942 35448 ft 514 kts 157°
2026-04-29 06:36 53.59700 18.62121 35439 ft 514 kts 157°
2026-04-29 06:37 53.52998 18.66319 35414 ft 514 kts 158°
2026-04-29 06:37 53.46250 18.70530 35416 ft 514 kts 158°
2026-04-29 06:38 53.39542 18.74698 35418 ft 514 kts 158°
2026-04-29 06:38 53.32879 18.78828 35427 ft 514 kts 158°
2026-04-29 06:39 53.26166 18.82976 35444 ft 514 kts 158°
2026-04-29 06:39 53.19460 18.87092 35421 ft 514 kts 158°
2026-04-29 06:40 53.12746 18.91200 35416 ft 514 kts 158°
2026-04-29 06:40 53.06029 18.95309 35419 ft 514 kts 158°
2026-04-29 06:41 52.99315 18.99401 35425 ft 514 kts 158°
2026-04-29 06:41 52.92593 19.03482 35400 ft 514 kts 159°
2026-04-29 06:42 52.85874 19.07551 35434 ft 514 kts 159°
2026-04-29 06:42 52.79153 19.11608 35428 ft 514 kts 159°
2026-04-29 06:43 52.72433 19.15647 35424 ft 514 kts 159°
2026-04-29 06:43 52.65712 19.19665 35395 ft 514 kts 159°
2026-04-29 06:44 52.58988 19.23675 35403 ft 514 kts 159°
2026-04-29 06:44 52.52251 19.27682 35403 ft 515 kts 159°
2026-04-29 06:45 52.45515 19.31681 35429 ft 515 kts 160°
2026-04-29 06:45 52.38783 19.35666 35398 ft 514 kts 160°
2026-04-29 06:46 52.32054 19.39645 35394 ft 514 kts 160°
2026-04-29 06:46 52.25324 19.43601 35401 ft 514 kts 160°
2026-04-29 06:47 52.18587 19.47535 35403 ft 514 kts 160°
2026-04-29 06:47 52.11894 19.51429 35407 ft 514 kts 160°
2026-04-29 06:48 52.05149 19.55349 35381 ft 515 kts 160°
2026-04-29 06:48 51.98400 19.59270 35385 ft 515 kts 160°
2026-04-29 06:49 51.91647 19.63171 35387 ft 515 kts 160°
2026-04-29 06:49 51.84898 19.67073 35390 ft 515 kts 160°
2026-04-29 06:50 51.78147 19.70964 35396 ft 515 kts 160°
2026-04-29 06:50 51.71391 19.74821 35414 ft 515 kts 161°
2026-04-29 06:51 51.64641 19.78663 35404 ft 514 kts 161°
2026-04-29 06:51 51.57899 19.82496 35398 ft 514 kts 161°
2026-04-29 06:52 51.51161 19.86316 35367 ft 513 kts 161°
2026-04-29 06:52 51.44423 19.90137 35372 ft 513 kts 161°
2026-04-29 06:53 51.37689 19.93945 35374 ft 513 kts 161°
2026-04-29 06:53 51.30944 19.97731 35401 ft 513 kts 161°
2026-04-29 06:54 51.24205 20.01505 35363 ft 513 kts 162°
2026-04-29 06:54 51.17460 20.05257 35363 ft 513 kts 162°
2026-04-29 06:55 51.10709 20.09003 35363 ft 514 kts 162°
2026-04-29 06:55 51.03967 20.12751 35363 ft 513 kts 162°
2026-04-29 06:56 50.97224 20.16501 35334 ft 513 kts 162°
2026-04-29 06:56 50.90480 20.20223 35368 ft 513 kts 163°
2026-04-29 06:57 50.83732 20.23924 35357 ft 513 kts 163°
2026-04-29 06:57 50.77030 20.27595 35352 ft 513 kts 163°
2026-04-29 06:58 50.70280 20.31280 35316 ft 513 kts 163°
2026-04-29 06:58 50.63525 20.34967 35327 ft 514 kts 163°
2026-04-29 06:59 50.56770 20.38644 35331 ft 514 kts 163°
2026-04-29 06:59 50.50010 20.42302 35359 ft 514 kts 163°
2026-04-29 07:00 50.43243 20.45952 35328 ft 514 kts 163°
2026-04-29 07:00 50.36472 20.49596 35332 ft 514 kts 163°
2026-04-29 07:01 50.29705 20.53233 35340 ft 515 kts 163°
2026-04-29 07:01 50.22927 20.56862 35341 ft 515 kts 163°
2026-04-29 07:02 50.16150 20.60468 35333 ft 514 kts 163°
2026-04-29 07:02 50.09377 20.64064 35348 ft 514 kts 163°
2026-04-29 07:03 50.02615 20.67665 35350 ft 513 kts 163°
2026-04-29 07:03 49.95856 20.71238 35348 ft 513 kts 164°
2026-04-29 07:04 49.89083 20.74712 35330 ft 512 kts 165°
2026-04-29 07:04 49.82288 20.77958 35340 ft 511 kts 166°
2026-04-29 07:05 49.75488 20.81141 35356 ft 510 kts 166°
2026-04-29 07:05 49.68707 20.84356 35350 ft 510 kts 166°
2026-04-29 07:06 49.61987 20.87587 35328 ft 509 kts 166°
2026-04-29 07:06 49.55237 20.90825 35343 ft 508 kts 166°
2026-04-29 07:07 49.48487 20.94024 35348 ft 507 kts 166°
2026-04-29 07:07 49.41740 20.97202 35348 ft 507 kts 166°
2026-04-29 07:08 49.35002 21.00378 35341 ft 506 kts 167°
2026-04-29 07:08 49.28245 21.03403 35346 ft 505 kts 169°
2026-04-29 07:09 49.21450 21.06103 35346 ft 504 kts 170°
2026-04-29 07:09 49.14651 21.08751 35347 ft 504 kts 170°
2026-04-29 07:10 49.07864 21.11470 35343 ft 504 kts 169°
2026-04-29 07:10 49.01087 21.14224 35356 ft 504 kts 169°
2026-04-29 07:11 48.94312 21.16966 35332 ft 504 kts 169°
2026-04-29 07:11 48.87533 21.19685 35278 ft 504 kts 170°
2026-04-29 07:12 48.80806 21.22374 35279 ft 503 kts 170°
2026-04-29 07:12 48.74029 21.25078 35277 ft 503 kts 170°
2026-04-29 07:13 48.67253 21.27782 35278 ft 503 kts 170°
2026-04-29 07:13 48.60478 21.30466 35271 ft 503 kts 171°
2026-04-29 07:14 48.53701 21.33140 35275 ft 503 kts 171°
2026-04-29 07:14 48.46924 21.35808 35269 ft 503 kts 171°
2026-04-29 07:15 48.40151 21.38481 35217 ft 503 kts 171°
2026-04-29 07:15 48.33372 21.41149 35229 ft 503 kts 171°
2026-04-29 07:16 48.26592 21.43798 35234 ft 503 kts 171°
2026-04-29 07:16 48.20954 21.45997 35242 ft 504 kts 171°
2026-04-29 07:17 48.14172 21.48636 35203 ft 504 kts 171°
2026-04-29 07:17 48.07389 21.51268 35224 ft 503 kts 171°
2026-04-29 07:18 48.00608 21.53892 35239 ft 503 kts 171°
2026-04-29 07:18 47.93833 21.56509 35253 ft 503 kts 171°
2026-04-29 07:19 47.87059 21.59118 35224 ft 503 kts 172°
2026-04-29 07:19 47.80282 21.61725 35231 ft 503 kts 171°
2026-04-29 07:20 47.73656 21.65357 35231 ft 509 kts 163°
2026-04-29 07:20 47.67083 21.69296 35227 ft 509 kts 163°
2026-04-29 07:21 47.60510 21.73225 35195 ft 509 kts 164°
2026-04-29 07:21 47.53930 21.77138 35203 ft 510 kts 164°
2026-04-29 07:22 47.47344 21.81038 35224 ft 510 kts 164°
2026-04-29 07:22 47.40798 21.84888 35221 ft 510 kts 164°
2026-04-29 07:23 47.34205 21.88754 35190 ft 510 kts 164°
2026-04-29 07:23 47.27609 21.92625 35183 ft 510 kts 164°
2026-04-29 07:24 47.21017 21.96511 35188 ft 511 kts 164°
2026-04-29 07:24 47.14410 22.00381 35154 ft 511 kts 165°
2026-04-29 07:25 47.07792 22.04230 35164 ft 512 kts 165°
2026-04-29 07:25 47.01162 22.08083 35180 ft 513 kts 165°
2026-04-29 07:26 46.94521 22.11931 35184 ft 513 kts 165°
2026-04-29 07:26 46.87877 22.15769 35142 ft 514 kts 164°
2026-04-29 07:27 46.81219 22.19608 35159 ft 515 kts 164°
2026-04-29 07:27 46.74546 22.23444 35169 ft 516 kts 164°
2026-04-29 07:28 46.67863 22.27272 35183 ft 516 kts 164°
2026-04-29 07:28 46.61179 22.31099 35190 ft 516 kts 164°
2026-04-29 07:29 46.54493 22.34918 35196 ft 516 kts 165°
2026-04-29 07:29 46.47806 22.38724 35182 ft 516 kts 165°
2026-04-29 07:30 46.41113 22.42529 35188 ft 516 kts 165°
2026-04-29 07:30 46.34416 22.46311 35162 ft 517 kts 164°
2026-04-29 07:31 46.24398 22.51949 35180 ft 518 kts 164°
2026-04-29 07:31 46.17688 22.55730 35179 ft 518 kts 164°
2026-04-29 07:32 46.10985 22.59496 35174 ft 516 kts 165°
2026-04-29 07:32 46.04305 22.63227 35198 ft 514 kts 165°
2026-04-29 07:33 45.97642 22.66945 35193 ft 513 kts 165°
2026-04-29 07:33 45.90992 22.70639 35149 ft 512 kts 166°
2026-04-29 07:34 45.84362 22.74314 35189 ft 510 kts 166°
2026-04-29 07:34 45.77755 22.77973 35187 ft 508 kts 166°
2026-04-29 07:35 45.71161 22.81625 35196 ft 507 kts 166°
2026-04-29 07:35 45.64584 22.85249 35163 ft 506 kts 166°
2026-04-29 07:36 45.58013 22.88841 35169 ft 505 kts 166°
2026-04-29 07:36 45.51460 22.92434 35173 ft 504 kts 166°
2026-04-29 07:37 45.44911 22.96020 35173 ft 504 kts 166°
2026-04-29 07:37 45.38370 22.99615 35130 ft 504 kts 166°
2026-04-29 07:38 45.31831 23.03236 35147 ft 505 kts 166°
2026-04-29 07:38 45.25290 23.06851 35146 ft 504 kts 166°
2026-04-29 07:39 45.18743 23.10442 35104 ft 505 kts 166°
2026-04-29 07:39 45.12176 23.14020 35100 ft 507 kts 166°
2026-04-29 07:40 45.05629 23.17597 35104 ft 509 kts 166°
2026-04-29 07:40 44.98976 23.21221 35110 ft 509 kts 166°
2026-04-29 07:41 44.92358 23.24821 35088 ft 510 kts 165°
2026-04-29 07:41 44.85727 23.28415 35098 ft 511 kts 165°
2026-04-29 07:42 44.79133 23.31980 35110 ft 511 kts 165°
2026-04-29 07:42 44.72492 23.35565 35086 ft 511 kts 165°
2026-04-29 07:43 44.65852 23.39136 35096 ft 511 kts 165°
2026-04-29 07:43 44.59211 23.42693 35104 ft 511 kts 165°
2026-04-29 07:44 44.52571 23.46251 35112 ft 511 kts 165°
2026-04-29 07:44 44.45933 23.49797 35097 ft 510 kts 165°
2026-04-29 07:45 44.39300 23.53334 35132 ft 510 kts 165°
2026-04-29 07:45 44.32674 23.56857 35143 ft 509 kts 165°
2026-04-29 07:46 44.26050 23.60364 35127 ft 509 kts 165°
2026-04-29 07:46 44.19432 23.63856 35126 ft 508 kts 165°
2026-04-29 07:47 44.12815 23.67346 35120 ft 508 kts 165°
2026-04-29 07:47 44.06203 23.70823 35121 ft 507 kts 166°
2026-04-29 07:48 43.99472 23.73325 35102 ft 499 kts 174°
2026-04-29 07:48 43.92713 23.75461 35113 ft 498 kts 174°
2026-04-29 07:49 43.85954 23.77595 35109 ft 498 kts 174°
2026-04-29 07:49 43.79194 23.79647 35092 ft 493 kts 179°
2026-04-29 07:50 43.72448 23.80099 35102 ft 483 kts 187°
2026-04-29 07:50 43.65775 23.80165 35116 ft 483 kts 187°
2026-04-29 07:51 43.59060 23.80232 35093 ft 482 kts 187°
2026-04-29 07:51 43.52348 23.80316 35103 ft 482 kts 187°
2026-04-29 07:52 43.45645 23.80412 35109 ft 482 kts 187°
2026-04-29 07:52 43.38940 23.80501 35097 ft 481 kts 187°
2026-04-29 07:53 43.32251 23.80570 35109 ft 481 kts 187°
2026-04-29 07:53 43.25564 23.80639 35118 ft 480 kts 187°
2026-04-29 07:54 43.18882 23.80724 35098 ft 480 kts 186°
2026-04-29 07:54 43.12189 23.81408 35108 ft 487 kts 177°
2026-04-29 07:55 43.05492 23.82855 35119 ft 487 kts 177°
2026-04-29 07:55 42.98793 23.84279 35102 ft 487 kts 177°
2026-04-29 07:56 42.92096 23.85703 35118 ft 487 kts 177°
2026-04-29 07:56 42.85401 23.87133 35124 ft 487 kts 177°
2026-04-29 07:57 42.78701 23.88549 35117 ft 487 kts 176°
2026-04-29 07:57 42.72003 23.89907 35137 ft 486 kts 178°
2026-04-29 07:58 42.65299 23.90980 35146 ft 485 kts 180°
2026-04-29 07:58 42.58640 23.91949 35139 ft 485 kts 179°
2026-04-29 07:59 42.51936 23.92990 35146 ft 485 kts 179°
2026-04-29 07:59 42.45238 23.94076 35157 ft 485 kts 179°
2026-04-29 08:00 42.38535 23.95159 35147 ft 485 kts 178°
2026-04-29 08:00 42.31837 23.96217 35156 ft 485 kts 179°
2026-04-29 08:01 42.25136 23.97273 35165 ft 485 kts 178°
2026-04-29 08:01 42.18439 23.98332 35174 ft 485 kts 178°
2026-04-29 08:02 42.11738 23.99400 35176 ft 485 kts 178°
2026-04-29 08:02 42.05043 24.00453 35170 ft 484 kts 179°
2026-04-29 08:03 41.98352 24.01535 35164 ft 485 kts 177°
2026-04-29 08:03 41.91677 24.03045 35169 ft 487 kts 174°
2026-04-29 08:04 41.85024 24.04812 35168 ft 487 kts 174°
2026-04-29 08:04 41.79498 24.06238 35160 ft 486 kts 174°
2026-04-29 08:05 41.72843 24.07848 35167 ft 485 kts 175°
2026-04-29 08:05 41.66197 24.09407 35171 ft 485 kts 175°
2026-04-29 08:06 41.59556 24.10990 35161 ft 484 kts 174°
2026-04-29 08:06 41.52995 24.13121 35164 ft 490 kts 162°
2026-04-29 08:07 41.46710 24.16700 35162 ft 491 kts 160°
2026-04-29 08:07 41.40418 24.20279 35160 ft 491 kts 161°
2026-04-29 08:08 41.34164 24.23820 35153 ft 491 kts 160°
2026-04-29 08:08 41.27841 24.27403 35158 ft 491 kts 160°
2026-04-29 08:09 41.21555 24.30955 35156 ft 491 kts 160°
2026-04-29 08:09 41.15275 24.34496 35139 ft 490 kts 160°
2026-04-29 08:10 41.09000 24.38022 35156 ft 490 kts 160°
2026-04-29 08:10 41.02731 24.41545 35165 ft 489 kts 160°
2026-04-29 08:11 40.96464 24.45058 35164 ft 489 kts 160°
2026-04-29 08:11 40.90206 24.48558 35153 ft 488 kts 160°
2026-04-29 08:12 40.83954 24.52061 35163 ft 488 kts 160°
2026-04-29 08:12 40.77742 24.55518 35144 ft 488 kts 160°
2026-04-29 08:13 40.71490 24.58992 35127 ft 488 kts 160°
2026-04-29 08:13 40.65237 24.62458 35133 ft 487 kts 160°
2026-04-29 08:14 40.58987 24.65914 35141 ft 487 kts 160°
2026-04-29 08:14 40.52737 24.69362 35146 ft 487 kts 160°
2026-04-29 08:15 40.46484 24.72807 35137 ft 487 kts 160°
2026-04-29 08:15 40.40240 24.76248 35144 ft 487 kts 160°
2026-04-29 08:16 40.33994 24.79684 35152 ft 487 kts 160°
2026-04-29 08:16 40.27751 24.83109 35154 ft 487 kts 160°
2026-04-29 08:17 40.21506 24.86530 35147 ft 486 kts 160°
2026-04-29 08:17 40.15268 24.89931 35152 ft 485 kts 160°
2026-04-29 08:18 40.09038 24.93323 35152 ft 485 kts 160°
2026-04-29 08:18 40.02810 24.96702 35151 ft 485 kts 160°
2026-04-29 08:19 39.96588 25.00084 35152 ft 484 kts 160°
2026-04-29 08:19 39.90410 25.03439 35153 ft 484 kts 160°
2026-04-29 08:20 39.84191 25.06798 35148 ft 484 kts 160°
2026-04-29 08:20 39.77971 25.10154 35131 ft 484 kts 160°
2026-04-29 08:21 39.71757 25.13502 35140 ft 483 kts 160°
2026-04-29 08:21 39.65547 25.16829 35137 ft 483 kts 160°
2026-04-29 08:22 39.59343 25.20160 35132 ft 482 kts 160°
2026-04-29 08:22 39.53140 25.23480 35120 ft 482 kts 160°
2026-04-29 08:23 39.46937 25.26791 35126 ft 482 kts 160°
2026-04-29 08:23 39.40734 25.30092 35132 ft 482 kts 160°
2026-04-29 08:24 39.34537 25.33394 35132 ft 482 kts 160°
2026-04-29 08:24 39.28384 25.36670 35125 ft 481 kts 160°
2026-04-29 08:25 39.22188 25.39958 35109 ft 481 kts 160°
2026-04-29 08:25 39.15991 25.43227 35108 ft 481 kts 160°
2026-04-29 08:26 39.09795 25.46490 35112 ft 481 kts 160°
2026-04-29 08:26 39.03601 25.49764 35102 ft 481 kts 160°
2026-04-29 08:27 38.97402 25.53027 35098 ft 481 kts 160°
2026-04-29 08:27 38.91202 25.56283 35108 ft 482 kts 160°
2026-04-29 08:28 38.84993 25.59535 35091 ft 482 kts 160°
2026-04-29 08:28 38.78788 25.62776 35099 ft 482 kts 160°
2026-04-29 08:29 38.72578 25.66022 35101 ft 482 kts 160°
2026-04-29 08:29 38.66365 25.69261 35103 ft 482 kts 160°
2026-04-29 08:30 38.57050 25.74107 35100 ft 482 kts 160°
2026-04-29 08:31 38.50886 25.77300 35102 ft 481 kts 160°
2026-04-29 08:31 38.44679 25.80513 35102 ft 481 kts 160°
2026-04-29 08:32 38.38476 25.83717 35099 ft 481 kts 160°
2026-04-29 08:32 38.32280 25.86915 35094 ft 480 kts 160°
2026-04-29 08:33 38.26085 25.90103 35094 ft 480 kts 160°
2026-04-29 08:33 38.19858 25.93140 35096 ft 479 kts 163°
2026-04-29 08:34 38.13579 25.95938 35084 ft 478 kts 163°
2026-04-29 08:34 38.07301 25.98716 35095 ft 477 kts 163°
2026-04-29 08:35 38.01046 26.01550 35095 ft 477 kts 163°
2026-04-29 08:35 37.94801 26.04398 35095 ft 477 kts 163°
2026-04-29 08:36 37.88559 26.07239 35101 ft 477 kts 162°
2026-04-29 08:36 37.82313 26.10070 35100 ft 477 kts 163°
2026-04-29 08:37 37.76068 26.12877 35098 ft 476 kts 163°
2026-04-29 08:37 37.69819 26.15679 35092 ft 476 kts 163°
2026-04-29 08:38 37.63572 26.18484 35091 ft 476 kts 163°
2026-04-29 08:38 37.57369 26.21275 35084 ft 476 kts 163°
2026-04-29 08:39 37.51127 26.24072 35088 ft 476 kts 163°
2026-04-29 08:39 37.44880 26.26871 35081 ft 477 kts 163°
2026-04-29 08:40 37.38631 26.29664 35071 ft 477 kts 163°
2026-04-29 08:40 37.32378 26.32449 35075 ft 477 kts 163°
2026-04-29 08:41 37.26125 26.35227 35079 ft 477 kts 163°
2026-04-29 08:41 37.19874 26.37995 35072 ft 476 kts 163°
2026-04-29 08:42 37.13625 26.40774 35060 ft 476 kts 163°
2026-04-29 08:42 37.07380 26.43539 35067 ft 476 kts 163°
2026-04-29 08:43 37.01293 26.46724 35059 ft 473 kts 148°
2026-04-29 08:43 36.98785 26.49360 34826 ft 471 kts 132°
2026-04-29 08:43 36.96916 26.52703 34583 ft 470 kts 118°
2026-04-29 08:43 36.95422 26.56349 33926 ft 474 kts 117°
2026-04-29 08:44 36.93913 26.60050 32927 ft 480 kts 117°
2026-04-29 08:44 36.92387 26.63781 31999 ft 484 kts 117°
2026-04-29 08:44 36.90846 26.67535 31061 ft 488 kts 117°
2026-04-29 08:44 36.89288 26.71309 30272 ft 488 kts 117°
2026-04-29 08:45 36.87740 26.75047 29629 ft 483 kts 117°
2026-04-29 08:45 36.86205 26.78751 28998 ft 478 kts 117°
2026-04-29 08:45 36.84685 26.82418 28384 ft 473 kts 117°
2026-04-29 08:45 36.83174 26.86052 27784 ft 469 kts 117°
2026-04-29 08:46 36.81681 26.89640 27238 ft 463 kts 117°
2026-04-29 08:46 36.80201 26.93197 26492 ft 462 kts 117°
2026-04-29 08:46 36.78716 26.96766 25710 ft 464 kts 117°
2026-04-29 08:46 36.77232 27.00327 25072 ft 461 kts 117°
2026-04-29 08:47 36.75759 27.03867 24468 ft 458 kts 117°
2026-04-29 08:47 36.74292 27.07376 23901 ft 455 kts 117°
2026-04-29 08:47 36.72831 27.10857 23275 ft 452 kts 117°
2026-04-29 08:47 36.71402 27.14266 22626 ft 448 kts 117°
2026-04-29 08:48 36.69968 27.17692 22002 ft 444 kts 117°
2026-04-29 08:48 36.68548 27.21085 21406 ft 440 kts 117°
2026-04-29 08:48 36.67140 27.24450 20806 ft 436 kts 117°
2026-04-29 08:48 36.65742 27.27777 20209 ft 432 kts 117°
2026-04-29 08:49 36.64354 27.31077 19631 ft 428 kts 117°
2026-04-29 08:49 36.62980 27.34345 19067 ft 425 kts 117°
2026-04-29 08:49 36.61615 27.37587 18504 ft 421 kts 117°
2026-04-29 08:49 36.60256 27.40803 17899 ft 418 kts 118°
2026-04-29 08:50 36.58906 27.43989 17309 ft 414 kts 118°
2026-04-29 08:50 36.57569 27.47142 16732 ft 410 kts 118°
2026-04-29 08:50 36.56245 27.50266 16198 ft 406 kts 117°
2026-04-29 08:50 36.54939 27.53356 15677 ft 402 kts 117°
2026-04-29 08:51 36.53642 27.56424 15161 ft 398 kts 117°
2026-04-29 08:51 36.52360 27.59455 14653 ft 395 kts 117°
2026-04-29 08:51 36.51084 27.62464 14152 ft 391 kts 117°
2026-04-29 08:51 36.49818 27.65441 13642 ft 388 kts 117°
2026-04-29 08:52 36.48560 27.68389 13104 ft 385 kts 117°
2026-04-29 08:52 36.47323 27.71320 12572 ft 381 kts 115°
2026-04-29 08:52 36.46421 27.74393 12056 ft 377 kts 103°
2026-04-29 08:52 36.45953 27.77577 11530 ft 373 kts 98°
2026-04-29 08:53 36.45536 27.80748 11024 ft 370 kts 98°
2026-04-29 08:53 36.45115 27.83891 10512 ft 367 kts 98°
2026-04-29 08:53 36.44694 27.87001 10015 ft 364 kts 98°
2026-04-29 08:53 36.44275 27.90093 9483 ft 361 kts 98°
2026-04-29 08:54 36.43914 27.93164 8952 ft 357 kts 91°
2026-04-29 08:54 36.44236 27.96175 8476 ft 350 kts 72°
2026-04-29 08:54 36.44969 27.99029 7995 ft 341 kts 70°
2026-04-29 08:54 36.45817 28.01701 7668 ft 323 kts 66°
2026-04-29 08:55 36.46680 28.04188 7401 ft 305 kts 65°
2026-04-29 08:55 36.47503 28.06547 7145 ft 290 kts 65°
2026-04-29 08:55 36.48026 28.08047 6966 ft 281 kts 66°
2026-04-29 08:55 36.48785 28.10224 6697 ft 268 kts 65°
2026-04-29 08:56 36.49510 28.12299 6437 ft 256 kts 65°
2026-04-29 08:56 36.50204 28.14284 6175 ft 245 kts 65°
2026-04-29 08:56 36.50872 28.16188 5893 ft 236 kts 65°
2026-04-29 08:56 36.51524 28.18028 5629 ft 231 kts 65°
2026-04-29 08:57 36.52172 28.19842 5376 ft 228 kts 65°
2026-04-29 08:57 36.52806 28.21646 5104 ft 227 kts 69°
2026-04-29 08:57 36.52988 28.23566 4803 ft 226 kts 101°
2026-04-29 08:57 36.52308 28.25281 4494 ft 222 kts 130°
2026-04-29 08:58 36.51083 28.26390 4221 ft 217 kts 152°
2026-04-29 08:58 36.49730 28.27194 3955 ft 213 kts 156°
2026-04-29 08:58 36.48317 28.27467 3689 ft 203 kts 189°
2026-04-29 08:58 36.47073 28.26757 3446 ft 194 kts 217°
2026-04-29 08:59 36.46171 28.25545 3241 ft 190 kts 238°
2026-04-29 08:59 36.45469 28.24185 2984 ft 183 kts 238°
2026-04-29 08:59 36.44840 28.22876 2730 ft 172 kts 241°
2026-04-29 08:59 36.44338 28.21555 2406 ft 166 kts 249°
2026-04-29 09:00 36.43943 28.20263 2135 ft 156 kts 251°
2026-04-29 09:00 36.43566 28.19031 1872 ft 152 kts 251°
2026-04-29 09:00 36.43226 28.17797 1626 ft 150 kts 253°
2026-04-29 09:00 36.42876 28.16582 1387 ft 149 kts 251°
2026-04-29 09:01 36.42513 28.15393 1098 ft 145 kts 252°
2026-04-29 09:01 36.42160 28.14222 826 ft 144 kts 252°
2026-04-29 09:01 36.41841 28.13048 632 ft 144 kts 253°
2026-04-29 09:01 36.41501 28.11891 390 ft 141 kts 251°
2026-04-29 09:02 36.41168 28.10760 167 ft 139 kts 251°
2026-04-29 09:02 36.40840 28.09653 35 ft 130 kts 250°
2026-04-29 09:02 36.40580 28.08762 29 ft 83 kts 250°
2026-04-29 09:02 36.40443 28.08290 28 ft 36 kts 250°
2026-04-29 09:03 36.40352 28.08056 29 ft 26 kts 235°
2026-04-29 09:03 36.40236 28.07910 28 ft 19 kts 220°
2026-04-29 09:03 36.40165 28.07857 28 ft 7 kts 192°
2026-04-29 09:03 36.40144 28.07884 28 ft 4 kts 86°
2026-04-29 09:04 36.40150 28.07915 28 ft 4 kts 72°
2026-04-29 09:04 36.40166 28.07969 28 ft 8 kts 69°
2026-04-29 09:04 36.40184 28.08031 28 ft 7 kts 71°
2026-04-29 09:04 36.40206 28.08109 28 ft 14 kts 69°
2026-04-29 09:05 36.40244 28.08237 28 ft 16 kts 70°
2026-04-29 09:05 36.40280 28.08362 28 ft 15 kts 69°
2026-04-29 09:05 36.40314 28.08477 28 ft 14 kts 70°
2026-04-29 09:05 36.40345 28.08582 28 ft 12 kts 70°
2026-04-29 09:06 36.40372 28.08677 28 ft 10 kts 70°
2026-04-29 09:06 36.40390 28.08740 28 ft 5 kts 72°
2026-04-29 09:06 36.40398 28.08782 28 ft 4 kts 81°
2026-04-29 09:06 36.40400 28.08815 28 ft 5 kts 85°
2026-04-29 09:07 36.40400 28.08876 28 ft 8 kts 94°
2026-04-29 09:07 36.40397 28.08940 28 ft 7 kts 90°
2026-04-29 09:07 36.40407 28.09025 28 ft 12 kts 74°
2026-04-29 09:07 36.40431 28.09113 28 ft 8 kts 70°
2026-04-29 09:08 36.40438 28.09141 28 ft 3 kts 81°
2026-04-29 09:08 36.40428 28.09157 28 ft 3 kts 135°
2026-04-29 09:08 36.40408 28.09170 28 ft 4 kts 156°
2026-04-29 09:08 36.40388 28.09180 28 ft 2 kts 159°
2026-04-29 09:09 36.40380 28.09184 28 ft 0 kts 159°
2026-04-29 09:09 36.40379 28.09184 28 ft 0 kts 159°